| time (UTC) | temp C | wind direction | speed KPH | gust KPH | rain 1hr cm | rain 24hr cm | rain mn cm | humidity % | barometer mb |
| 20260503053616 | 13 | 111 | 1.6 | 4.8 | 0.00 | 0.18 | 0.13 | 91 | 1009.2 |
| 20260503052616 | 13 | 144 | 0.0 | 4.8 | 0.00 | 0.18 | 0.13 | 91 | 1009.3 |
| 20260503051616 | 13 | 133 | 1.6 | 4.8 | 0.00 | 0.18 | 0.13 | 91 | 1009.3 |
| 20260503050615 | 13 | 96 | 1.6 | 3.2 | 0.00 | 0.18 | 0.13 | 90 | 1009.3 |
| 20260503045606 | 13 | 96 | 0.0 | 3.2 | 0.03 | 0.15 | 0.13 | 90 | 1009.4 |
| 20260503044607 | 13 | 96 | 0.0 | 1.6 | 0.05 | 0.15 | 0.13 | 90 | 1009.3 |
| 20260503043606 | 13 | 96 | 0.0 | 4.8 | 0.05 | 0.15 | 0.13 | 90 | 1009.3 |
| 20260503042606 | 13 | 96 | 1.6 | 4.8 | 0.05 | 0.15 | 0.13 | 90 | 1009.3 |
| 20260503041607 | 13 | 97 | 1.6 | 4.8 | 0.05 | 0.15 | 0.13 | 90 | 1009.4 |
| 20260503040603 | 13 | 79 | 1.6 | 4.8 | 0.05 | 0.15 | 0.13 | 90 | 1009.4 |
| 20260503035602 | 13 | 51 | 1.6 | 3.2 | 0.05 | 0.13 | 0.10 | 90 | 1009.7 |
| 20260503034602 | 13 | 49 | 1.6 | 1.6 | 0.03 | 0.13 | 0.08 | 89 | 1009.8 |
| 20260503031602 | 13 | 314 | 0.0 | 3.2 | 0.00 | 0.13 | 0.05 | 89 | 1010.4 |
| 20260503025602 | 13 | 314 | 3.2 | 3.2 | 0.00 | 0.13 | 0.05 | 89 | 1010.3 |
| 20260503024602 | 13 | 157 | 0.0 | 1.6 | 0.00 | 0.13 | 0.05 | 89 | 1010.4 |
| 20260503023601 | 13 | 157 | 0.0 | 3.2 | 0.00 | 0.13 | 0.05 | 89 | 1010.2 |
| 20260503021600 | 13 | 157 | 3.2 | 4.8 | 0.00 | 0.13 | 0.05 | 89 | 1010.5 |
| 20260503020603 | 13 | 157 | 0.0 | 1.6 | 0.00 | 0.13 | 0.05 | 89 | 1010.6 |
| 20260503014559 | 13 | 154 | 1.6 | 4.8 | 0.00 | 0.13 | 0.05 | 89 | 1010.5 |
| 20260503013601 | 13 | 152 | 0.0 | 6.4 | 0.00 | 0.13 | 0.05 | 89 | 1010.7 |
| 20260503012559 | 13 | 104 | 0.0 | 3.2 | 0.00 | 0.13 | 0.05 | 89 | 1010.6 |
| 20260503010559 | 13 | 104 | 1.6 | 4.8 | 0.00 | 0.13 | 0.05 | 89 | 1010.5 |
| 20260503004558 | 13 | 116 | 0.0 | 6.4 | 0.00 | 0.13 | 0.05 | 88 | 1010.7 |
| 20260503003558 | 13 | 78 | 0.0 | 4.8 | 0.00 | 0.13 | 0.05 | 88 | 1010.7 |
| 20260503001559 | 13 | 92 | 1.6 | 6.4 | 0.03 | 0.13 | 0.05 | 87 | 1010.9 |
| 20260502235538 | 13 | 92 | 3.2 | 8.0 | 0.03 | 0.10 | 0.05 | 87 | 1011.0 |
| 20260502234525 | 13 | 114 | 1.6 | 11.3 | 0.05 | 0.10 | 0.05 | 87 | 1011.2 |
| 20260502233521 | 13 | 121 | 4.8 | 17.7 | 0.05 | 0.10 | 0.05 | 87 | 1011.3 |
| 20260502232520 | 13 | 159 | 3.2 | 17.7 | 0.05 | 0.10 | 0.05 | 87 | 1011.4 |
| 20260502231517 | 13 | 109 | 4.8 | 14.5 | 0.05 | 0.10 | 0.05 | 87 | 1011.6 |
| 20260502230512 | 13 | 125 | 4.8 | 19.3 | 0.05 | 0.10 | 0.05 | 87 | 1011.7 |
| 20260502224506 | 13 | 75 | 4.8 | 22.5 | 0.03 | 0.05 | 0.03 | 85 | 1012.0 |
| 20260502223504 | 13 | 106 | 8.0 | 16.1 | 0.03 | 0.05 | 0.03 | 84 | 1012.6 |
| 20260502222508 | 13 | 155 | 9.7 | 25.7 | 0.03 | 0.05 | 0.03 | 83 | 1013.0 |
| 20260502220454 | 13 | 78 | 3.2 | 9.7 | 0.00 | 0.05 | 0.00 | 81 | 1012.1 |
| 20260502215454 | 13 | 68 | 4.8 | 9.7 | 0.00 | 0.05 | 0.05 | 81 | 1012.1 |
| 20260502214454 | 13 | 72 | 6.4 | 11.3 | 0.00 | 0.05 | 0.05 | 81 | 1012.1 |
| 20260502213454 | 13 | 69 | 3.2 | 11.3 | 0.00 | 0.05 | 0.05 | 82 | 1012.2 |
| 20260502212455 | 13 | 72 | 4.8 | 9.7 | 0.00 | 0.05 | 0.05 | 81 | 1012.3 |
| 20260502211452 | 13 | 62 | 3.2 | 6.4 | 0.00 | 0.05 | 0.05 | 81 | 1012.4 |
| 20260502210452 | 13 | 58 | 4.8 | 9.7 | 0.00 | 0.05 | 0.05 | 81 | 1012.6 |
| 20260502205450 | 13 | 54 | 1.6 | 8.0 | 0.00 | 0.05 | 0.05 | 81 | 1012.8 |
| 20260502204450 | 13 | 63 | 1.6 | 6.4 | 0.00 | 0.05 | 0.05 | 81 | 1012.8 |
| 20260502203453 | 13 | 59 | 3.2 | 8.0 | 0.00 | 0.05 | 0.05 | 81 | 1013.0 |
| 20260502202454 | 13 | 63 | 4.8 | 11.3 | 0.00 | 0.05 | 0.05 | 81 | 1013.1 |
| 20260502201450 | 13 | 65 | 1.6 | 6.4 | 0.00 | 0.05 | 0.05 | 81 | 1013.2 |
| 20260502200446 | 13 | 38 | 3.2 | 9.7 | 0.00 | 0.05 | 0.05 | 82 | 1013.3 |
| 20260502195436 | 13 | 66 | 4.8 | 8.0 | 0.00 | 0.05 | 0.05 | 81 | 1013.4 |
| 20260502194438 | 13 | 63 | 3.2 | 4.8 | 0.00 | 0.05 | 0.05 | 81 | 1013.4 |
| 20260502193435 | 13 | 31 | 4.8 | 8.0 | 0.00 | 0.05 | 0.05 | 81 | 1013.4 |
| 20260502192434 | 14 | 49 | 4.8 | 8.0 | 0.00 | 0.05 | 0.05 | 80 | 1013.4 |
| 20260502191430 | 14 | 10 | 3.2 | 4.8 | 0.00 | 0.05 | 0.05 | 79 | 1013.5 |
| 20260502190433 | 15 | 0 | 1.6 | 4.8 | 0.00 | 0.05 | 0.05 | 78 | 1013.5 |
| 20260502185430 | 15 | 353 | 4.8 | 6.4 | 0.00 | 0.05 | 0.05 | 78 | 1013.7 |
| 20260502184424 | 15 | 0 | 3.2 | 4.8 | 0.00 | 0.05 | 0.05 | 77 | 1013.6 |
| 20260502183424 | 15 | 38 | 3.2 | 8.0 | 0.00 | 0.05 | 0.05 | 76 | 1013.7 |
| 20260502170405 | 16 | 0 | 1.6 | 9.7 | 0.00 | 0.05 | 0.05 | 71 | 1014.2 |
| 20260502163351 | 16 | 320 | 6.4 | 11.3 | 0.00 | 0.05 | 0.05 | 70 | 1014.7 |
| 20260502162346 | 16 | 317 | 9.7 | 14.5 | 0.00 | 0.05 | 0.05 | 69 | 1014.8 |
| 20260502152340 | 17 | 299 | 6.4 | 14.5 | 0.00 | 0.05 | 0.05 | 62 | 1015.2 |
| 20260502151339 | 18 | 231 | 6.4 | 14.5 | 0.00 | 0.05 | 0.05 | 59 | 1015.3 |
| 20260502150334 | 18 | 248 | 9.7 | 16.1 | 0.00 | 0.05 | 0.05 | 58 | 1015.5 |
| 20260502122242 | 21 | 262 | 8.0 | 17.7 | 0.00 | 0.05 | 0.05 | 62 | 1016.5 |
| 20260502121237 | 21 | 244 | 12.9 | 20.9 | 0.00 | 0.05 | 0.05 | 62 | 1016.5 |
| 20260502120233 | 21 | 238 | 11.3 | 19.3 | 0.00 | 0.05 | 0.05 | 62 | 1016.6 |
| 20260502115236 | 21 | 248 | 11.3 | 24.1 | 0.00 | 0.05 | 0.05 | 64 | 1016.6 |
| 20260502114230 | 21 | 209 | 17.7 | 24.1 | 0.00 | 0.05 | 0.05 | 63 | 1016.6 |
| 20260502113231 | 22 | 257 | 6.4 | 17.7 | 0.00 | 0.05 | 0.05 | 62 | 1016.6 |
| 20260502112233 | 21 | 241 | 11.3 | 19.3 | 0.00 | 0.05 | 0.05 | 63 | 1016.5 |
| 20260502111234 | 21 | 285 | 8.0 | 20.9 | 0.00 | 0.05 | 0.05 | 62 | 1016.6 |
| 20260502110234 | 21 | 286 | 9.7 | 20.9 | 0.00 | 0.05 | 0.05 | 64 | 1016.7 |
| 20260502105234 | 21 | 268 | 6.4 | 24.1 | 0.00 | 0.05 | 0.05 | 67 | 1016.7 |
| 20260502104231 | 20 | 228 | 14.5 | 22.5 | 0.00 | 0.05 | 0.05 | 68 | 1016.8 |
| 20260502103232 | 19 | 224 | 8.0 | 19.3 | 0.00 | 0.05 | 0.05 | 73 | 1016.9 |
| 20260502102232 | 19 | 234 | 14.5 | 19.3 | 0.00 | 0.05 | 0.05 | 73 | 1016.9 |
| 20260502101235 | 19 | 241 | 11.3 | 22.5 | 0.00 | 0.05 | 0.05 | 73 | 1016.8 |
| 20260502100233 | 19 | 257 | 8.0 | 17.7 | 0.00 | 0.05 | 0.05 | 76 | 1016.7 |
| 20260502091218 | 17 | 292 | 1.6 | 14.5 | 0.03 | 0.05 | 0.05 | 86 | 1016.7 |
| 20260502071156 | 15 | 264 | 8.0 | 16.1 | 0.00 | 0.00 | 0.00 | 78 | 1016.9 |
| 20260502070153 | 15 | 240 | 6.4 | 11.3 | 0.00 | 0.00 | 0.00 | 77 | 1016.8 |
| 20260502065156 | 15 | 233 | 3.2 | 11.3 | 0.00 | 0.00 | 0.00 | 77 | 1016.7 |
| 20260502064150 | 15 | 238 | 6.4 | 9.7 | 0.00 | 0.00 | 0.00 | 76 | 1016.8 |
| 20260502063150 | 15 | 164 | 6.4 | 8.0 | 0.00 | 0.00 | 0.00 | 75 | 1016.8 |
| 20260502062147 | 14 | 231 | 1.6 | 8.0 | 0.00 | 0.00 | 0.00 | 74 | 1016.8 |
| 20260502061143 | 13 | 237 | 8.0 | 11.3 | 0.00 | 0.00 | 0.00 | 73 | 1016.7 |
| 20260502055137 | 12 | 245 | 4.8 | 11.3 | 0.00 | 0.00 | 0.00 | 71 | 1016.6 |
| 20260502054138 | 12 | 214 | 3.2 | 8.0 | 0.00 | 0.00 | 0.00 | 68 | 1016.7 |